This is the latest recevied weather packets stored in our database for station/object 4S6DRJ-13. If no packets are shown the sender has not sent any weather packets the latest 10 day(s).
| Time | Temp. | Humidity | Pressure | Rain* | Wind** | Luminosity | Snow |
|---|---|---|---|---|---|---|---|
| 1788171281 | 30.56° C | 71% | 1007 hPa | 0 mm | 1.79 m/s, 294° | 392 W/m² | - |
| 1788171220 | 30.56° C | 73% | 1007 hPa | 0 mm | 2.68 m/s, 263° | 647 W/m² | - |
| 1788171159 | 30.56° C | 73% | 1006.9 hPa | 0 mm | 2.24 m/s, 198° | 677 W/m² | - |
| 1788171097 | 30.56° C | 73% | 1007 hPa | 0 mm | 0.89 m/s, 230° | 723 W/m² | - |
| 1788171036 | 30.56° C | 73% | 1007 hPa | 0 mm | 0.89 m/s, 196° | 711 W/m² | - |
| 1788170975 | 30.56° C | 73% | 1007.1 hPa | 0 mm | 1.79 m/s, 114° | 411 W/m² | - |
| 1788170922 | 30.56° C | 74% | 1006.8 hPa | 0 mm | 1.79 m/s, 224° | 230 W/m² | - |
| 1788170853 | 30.56° C | 73% | 1007 hPa | 0 mm | 1.79 m/s, 247° | 432 W/m² | - |
| 1788170792 | 30.56° C | 73% | 1006.9 hPa | 0 mm | 2.24 m/s, 341° | 302 W/m² | - |
| 1788170731 | 30.56° C | 72% | 1007 hPa | 0 mm | 2.68 m/s, 359° | 334 W/m² | - |
| 1788170670 | 30.56° C | 72% | 1007 hPa | 0 mm | 1.79 m/s, 260° | 782 W/m² | - |
| 1788170609 | 30.56° C | 72% | 1007.1 hPa | 0 mm | 1.34 m/s, 60° | 287 W/m² | - |
| 1788170548 | 30.56° C | 72% | 1007 hPa | 0 mm | 0.89 m/s, 204° | 228 W/m² | - |
| 1788170488 | 30.56° C | 71% | 1007 hPa | 0 mm | 0.89 m/s, 266° | 165 W/m² | - |
| 1788170426 | 30.56° C | 71% | 1007 hPa | 0 mm | 1.34 m/s, 167° | 240 W/m² | - |
| 1788170365 | 31.11° C | 70% | 1007 hPa | 0 mm | 1.79 m/s, 211° | 743 W/m² | - |
| 1788170304 | 31.11° C | 71% | 1007.1 hPa | 0 mm | 2.24 m/s, 51° | 323 W/m² | - |
| 1788170243 | 31.11° C | 72% | 1006.9 hPa | 0 mm | 1.79 m/s, 244° | 215 W/m² | - |
| 1788170182 | 31.11° C | 72% | 1006.9 hPa | 0 mm | 2.68 m/s, 240° | 695 W/m² | - |
| 1788170121 | 31.11° C | 72% | 1006.9 hPa | 0 mm | 1.34 m/s, 200° | 811 W/m² | - |
| 1788170060 | 31.11° C | 71% | 1007.3 hPa | 0 mm | 1.34 m/s, 313° | 428 W/m² | - |
| 1788169999 | 31.11° C | 71% | 1007 hPa | 0 mm | 3.13 m/s, 310° | 215 W/m² | - |
| 1788169939 | 31.11° C | 70% | 1006.9 hPa | 0 mm | 1.79 m/s, 260° | 262 W/m² | - |
| 1788169878 | 31.11° C | 70% | 1007.1 hPa | 0 mm | 1.79 m/s, 289° | 466 W/m² | - |
| 1788169816 | 30.56° C | 71% | 1006.9 hPa | 0 mm | 1.34 m/s, 266° | 717 W/m² | - |
* Rain latest hour (hover to see other rain measurements)
** Current wind speed in m/s (hover to see current wind gust speed)